Troy, AL

8:55 PM CDT on April 21, 2018 (GMT -0500)
Troy Municipal

Weather History for KTOI - April, 2013

Change the Weather History Date:

Monday, April 29, 2013

  Actual Average Record
Temperature  
Mean Temperature 72 °F 67 °F  
Max Temperature 83 °F 80 °F 89 °F (2016)
Min Temperature 61 °F 53 °F 42 °F (2008)
Degree Days  
Heating Degree Days 0 2  
Month to date heating degree days 113 112  
Since 1 July heating degree days 2148 2313  
Cooling Degree Days 7 3  
Month to date cooling degree days 65 54  
Year to date cooling degree days 90 73  
Growing Degree Days 22 (Base 50)    
Moisture  
Dew Point 60 °F    
Average Humidity 64    
Maximum Humidity 90    
Minimum Humidity 37    
Precipitation  
Precipitation 0.12 in 0.09 in 0.92 in (2014)
Month to date precipitation 2.68 3.91  
Year to date precipitation 21.75 19.07  
Snow  
Snow 0.00 in - - ()
Month to date snowfall 0.0  
Since 1 July snowfall 0.0  
Snow Depth 0.00 in    
Sea Level Pressure  
Sea Level Pressure 29.99 in    
Wind  
Wind Speed 2 mph (NNE)    
Max Wind Speed 12 mph    
Max Gust Speed 16 mph    
Visibility 8 miles    
Events Rain    
T = Trace of Precipitation, MM = Missing Value Source: NWS Daily Summary

Daily Weather History Graph

Daily Weather History Graph

Search for Another Location

Airport or City:

Astronomy

Apr. 29, 2013 Rise Set
Actual Time 6:00 AM CDT 7:23 PM CDT
Civil Twilight 5:34 AM CDT 7:48 PM CDT
Nautical Twilight 5:03 AM CDT 8:19 PM CDT
Astronomical Twilight 4:31 AM CDT 8:52 PM CDT
Moon 11:42 PM CDT (4/29) 9:25 AM CDT (4/29)
Length of Visible Light 14h 14m
Length of Day
13h 23m
Waning Gibbous, 80% of the Moon is Illuminated
Apr 29
Waning Gibbous
May 2
Last Quarter
May 9
New
May 17
First Quarter
May 24
Full

Hourly Weather History & Observations

Time (CDT) Temp. Heat Index Dew Point Humidity Pressure Visibility Wind Dir Wind Speed Gust Speed Precip Events Conditions
12:53 AM 66.0 °F - 61.0 °F 84% 29.97 in 10.0 mi ESE 4.6 mph - N/A   Scattered Clouds
1:53 AM 64.9 °F - 60.1 °F 84% 29.96 in 10.0 mi SE 4.6 mph - N/A   Mostly Cloudy
2:53 AM 64.9 °F - 60.1 °F 84% 29.97 in 10.0 mi SE 3.5 mph - N/A   Clear
3:39 AM 64.4 °F - 60.8 °F 88% 29.97 in 10.0 mi NE 3.5 mph - N/A   Overcast
3:53 AM 64.9 °F - 60.1 °F 84% 29.97 in 10.0 mi NNW 3.5 mph - N/A   Mostly Cloudy
4:53 AM 64.9 °F - 60.1 °F 84% 29.98 in 10.0 mi Calm Calm - N/A   Mostly Cloudy
5:53 AM 64.0 °F - 61.0 °F 90% 29.99 in 8.0 mi Calm Calm - 0.00 in   Overcast
6:35 AM 64.4 °F - 60.8 °F 88% 30.01 in 5.0 mi Calm Calm - 0.05 in Rain Light Rain
6:53 AM 64.0 °F - 61.0 °F 90% 30.00 in 3.0 mi Calm Calm - 0.06 in Rain Light Rain
7:08 AM 64.4 °F - 60.8 °F 88% 30.02 in 2.0 mi Calm Calm - 0.03 in Rain Rain
7:16 AM 64.4 °F - 60.8 °F 88% 30.02 in 1.8 mi NNE 5.8 mph - 0.05 in Rain Rain
7:27 AM 64.4 °F - 60.8 °F 88% 30.01 in 2.5 mi East 5.8 mph - 0.06 in Rain Light Rain
7:34 AM 64.4 °F - 60.8 °F 88% 30.01 in 4.0 mi East 5.8 mph - 0.06 in Rain Light Rain
7:53 AM 64.0 °F - 61.0 °F 90% 30.01 in 5.0 mi Calm Calm - 0.06 in Rain Light Rain
8:02 AM 64.4 °F - 60.8 °F 88% 30.02 in 7.0 mi Calm Calm - 0.00 in Rain Light Rain
8:15 AM 64.4 °F - 60.8 °F 88% 30.02 in 7.0 mi North 3.5 mph - 0.00 in   Overcast
8:29 AM 66.2 °F - 62.6 °F 88% 30.02 in 8.0 mi Calm Calm - 0.00 in   Overcast
8:53 AM 66.0 °F - 61.0 °F 84% 30.01 in 8.0 mi Calm Calm - 0.00 in   Overcast
9:02 AM 66.2 °F - 60.8 °F 83% 30.02 in 9.0 mi NNW 3.5 mph - N/A   Overcast
9:09 AM 66.2 °F - 62.6 °F 88% 30.03 in 9.0 mi Calm Calm - N/A   Overcast
9:43 AM 69.8 °F - 62.6 °F 78% 30.03 in 10.0 mi Calm Calm - N/A   Overcast
9:53 AM 69.1 °F - 63.0 °F 81% 30.02 in 10.0 mi Calm Calm - N/A   Overcast
10:53 AM 73.0 °F - 63.0 °F 71% 30.03 in 10.0 mi Calm Calm - N/A   Scattered Clouds
11:53 AM 75.9 °F - 60.1 °F 58% 30.01 in 10.0 mi West 4.6 mph - N/A   Scattered Clouds
12:53 PM 79.0 °F - 57.9 °F 48% 29.98 in 10.0 mi North 6.9 mph - N/A   Mostly Cloudy
1:53 PM 79.0 °F - 57.9 °F 48% 29.97 in 10.0 mi NNW 4.6 mph - N/A   Mostly Cloudy
2:53 PM 81.0 °F 80.5 °F 54.0 °F 39% 29.94 in 10.0 mi NNW 4.6 mph - N/A   Partly Cloudy
3:53 PM 81.0 °F 80.7 °F 55.0 °F 41% 29.92 in 10.0 mi Variable 5.8 mph - N/A   Scattered Clouds
4:53 PM 82.0 °F 81.3 °F 54.0 °F 38% 29.92 in 10.0 mi NW 4.6 mph - N/A   Scattered Clouds
5:53 PM 81.0 °F 80.5 °F 54.0 °F 39% 29.92 in 10.0 mi NW 5.8 mph - N/A   Clear
6:53 PM 77.0 °F - 55.9 °F 48% 29.93 in 10.0 mi Calm Calm - N/A   Clear
7:53 PM 72.0 °F - 62.1 °F 71% 29.95 in 10.0 mi South 5.8 mph - N/A   Mostly Cloudy
8:53 PM 68.0 °F - 60.1 °F 76% 29.96 in 10.0 mi South 3.5 mph - N/A   Clear
9:53 PM 66.0 °F - 60.1 °F 81% 29.96 in 10.0 mi Calm Calm - N/A   Clear
10:53 PM 63.0 °F - 59.0 °F 87% 29.96 in 10.0 mi Calm Calm - N/A   Clear
11:53 PM 62.1 °F - 57.9 °F 86% 29.96 in 10.0 mi Calm Calm - N/A   Clear